TimeCDT,TemperatureF,Dew PointF,Humidity,Sea Level PressureIn,VisibilityMPH,Wind Direction,Wind SpeedMPH,Gust SpeedMPH,PrecipitationIn,Events,Conditions,WindDirDegrees,DateUTC
12:52 AM,78.1,72.0,81,29.85,-9999.0,Calm,Calm,-,N/A,,Unknown,0,2013-07-20 05:52:00
1:52 AM,78.1,71.1,79,29.84,-9999.0,Calm,Calm,-,N/A,,Unknown,0,2013-07-20 06:52:00
2:52 AM,79.0,70.0,74,29.85,-9999.0,North,5.8,-,N/A,,Unknown,350,2013-07-20 07:52:00
3:52 AM,77.0,68.0,74,29.85,-9999.0,North,3.5,-,N/A,,Unknown,360,2013-07-20 08:52:00
4:52 AM,77.0,66.0,69,29.86,-9999.0,North,4.6,-,N/A,,Unknown,10,2013-07-20 09:52:00
5:52 AM,75.0,66.0,73,29.87,-9999.0,Calm,Calm,-,N/A,,Unknown,0,2013-07-20 10:52:00
6:52 AM,75.0,66.0,73,29.88,-9999.0,North,3.5,-,N/A,,Unknown,10,2013-07-20 11:52:00
7:52 AM,75.9,64.0,67,29.89,-9999.0,NNE,4.6,-,N/A,,Unknown,20,2013-07-20 12:52:00
8:52 AM,79.0,64.0,60,29.89,-9999.0,Variable,3.5,-,N/A,,Unknown,0,2013-07-20 13:52:00
9:52 AM,80.1,64.0,58,29.90,-9999.0,Calm,Calm,-,N/A,,Unknown,0,2013-07-20 14:52:00
10:52 AM,82.9,64.9,54,29.91,-9999.0,SSW,3.5,-,N/A,,Unknown,200,2013-07-20 15:52:00
11:52 AM,82.9,66.0,56,29.92,-9999.0,WNW,3.5,-,N/A,,Unknown,290,2013-07-20 16:52:00
12:52 PM,86.0,66.0,51,29.92,-9999.0,North,-9999.0,-,N/A,,Unknown,0,2013-07-20 17:52:00
1:52 PM,86.0,64.9,49,29.91,-9999.0,NE,8.1,-,N/A,,Unknown,40,2013-07-20 18:52:00
2:52 PM,86.0,64.0,48,29.89,-9999.0,ENE,3.5,-,N/A,,Unknown,60,2013-07-20 19:52:00
3:52 PM,86.0,63.0,46,29.88,-9999.0,ENE,4.6,-,N/A,,Unknown,70,2013-07-20 20:52:00
4:52 PM,84.9,64.9,51,29.86,-9999.0,ENE,3.5,-,N/A,,Unknown,70,2013-07-20 21:52:00
5:52 PM,86.0,61.0,43,29.85,-9999.0,North,4.6,-,N/A,,Unknown,10,2013-07-20 22:52:00
6:52 PM,82.0,69.1,65,29.85,-9999.0,Calm,Calm,-,N/A,,Unknown,0,2013-07-20 23:52:00
7:52 PM,79.0,69.1,72,29.86,-9999.0,Calm,Calm,-,N/A,,Unknown,0,2013-07-21 00:52:00
8:52 PM,77.0,69.1,76,29.86,-9999.0,East,3.5,-,N/A,,Unknown,100,2013-07-21 01:52:00
9:52 PM,75.9,66.9,74,29.89,-9999.0,Calm,Calm,-,N/A,,Unknown,0,2013-07-21 02:52:00
10:52 PM,73.9,66.9,79,29.91,-9999.0,Calm,Calm,-,N/A,,Unknown,0,2013-07-21 03:52:00
11:52 PM,73.0,68.0,84,29.89,-9999.0,Calm,Calm,-,N/A,,Unknown,0,2013-07-21 04:52:00